Simultaneous Nadir Overpasses (SNOs) Predictions

Prediction of SNOs between METOP-B and TERRA Satellite Orbit:

Table of predicted SNOs for the next 14.0 days since TLE Epoch: 9/12/2025
Index Date (METOP-B) Time (METOP-B) Lat,Lon (METOP-B) SZA (METOP-B ) Date (TERRA) Time (TERRA) Lat,Lon (TERRA) SZA (TERRA ) Distance(km) Time Diff (sec)
1 09/14/2025 20:54:50 -75.92, 38.52 107.12 09/14/2025 20:55:43 -75.94, 38.60 107.12 2.56 53
2 09/14/2025 21:45:11 76.77,-151.13 73.68 09/14/2025 21:44:43 76.79,-151.04 73.69 2.62 28
3 09/17/2025 10:34:17 76.56, 15.79 74.46 09/17/2025 10:34:18 76.56, 15.76 74.45 0.87 1
4 09/19/2025 23:23:28 76.11,-178.08 75.02 09/19/2025 23:23:57 76.11,-178.05 75.01 0.76 29
5 09/20/2025 00:13:52 -76.94, -7.72 104.20 09/20/2025 00:13:01 -76.94, -7.71 104.20 0.37 51
6 09/22/2025 12:12:37 75.70, -11.71 75.62 09/22/2025 12:13:34 75.70, -11.67 75.61 1.27 57
7 09/22/2025 13:03:00 -76.59, 158.66 103.55 09/22/2025 13:02:37 -76.59, 158.69 103.55 0.86 23
8 09/25/2025 01:52:08 -76.27, -34.75 102.86 09/25/2025 01:52:13 -76.28, -34.74 102.86 0.26 5



Historial Predications of SNOs between METOP-B and TERRA
